User: anonymous   Login
Location: Unspecified
(41.5000°N, 0.0000°E)
Time: 12:16:39
(UTC+00:00)
Language:

deb Explorer IX - Orbit

View from above orbital plane
View from above orbital plane
View from above satellite
View from above satellite

Ground track
Ground track

The orbit data is extracted from the following two-line orbital elements,

1    85U 61004C   20293.77555715 +.00000639 +00000-0 +14866-3 0  9998
2    85 038.7717 106.5753 0395497 249.4478 106.3414 14.21113861948761
Epoch (UTC): 19 October 2020 18:36:48
Eccentricity: 0.0395497
inclination: 38.7717°
perigee height: 537 km
apogee height: 1106 km
right ascension of ascending node: 106.5753°
argument of perigee: 249.4478°
revolutions per day: 14.21113861
mean anomaly at epoch: 106.3414°
orbit number at epoch: 94876

The dashed part of the orbit path shows where the satellite is in the earth's shadow,  

DLR